Location: Haliburton Scout Reserve
(45.0900°N, 78.3200°W)
Time: 05:14:47
(UTC-04:00)

AAUSAT CUBESAT 2 - Visible Passes

Search period start: 02 April 2023 00:00
Search period end: 12 April 2023 00:00
Orbit: 557 x 563 km, 97.6° (Epoch: 01 April)

Date Brightness Start Highest point End Pass type
(mag) Time Alt. Az. Time Alt. Az. Time Alt. Az.
02 Apr ? 05:57:23 10° N 06:01:26 79° WNW 06:05:26 10° SSW visible
03 Apr ? 05:56:13 10° N 06:00:16 81° WNW 06:04:16 10° SSW visible
04 Apr ? 05:55:02 10° N 05:59:04 84° WNW 06:03:04 10° SSW visible
05 Apr ? 05:53:47 10° NNE 05:57:50 86° WNW 06:01:50 10° SSW visible
06 Apr ? 05:52:32 10° NNE 05:56:35 89° W 06:00:35 10° SSW visible
07 Apr ? 05:51:15 10° NNE 05:55:17 88° ESE 05:59:18 10° SSW visible
08 Apr ? 05:49:56 10° NNE 05:53:58 86° ESE 05:57:57 10° SSW visible
09 Apr ? 05:48:35 10° NNE 05:52:37 83° ESE 05:56:37 10° S visible
10 Apr ? 05:47:12 10° NNE 05:51:15 80° ESE 05:55:14 10° S visible
11 Apr ? 05:45:48 10° NNE 05:49:50 77° E 05:53:49 10° S visible
